Eagle Creek, IN

6:07 PM EDT on April 26, 2017 (GMT -0400)
Eagle Creek

Weather History for KEYE - May, 2013

Change the Weather History Date:

Wednesday, May 22, 2013

  Actual Average Record
Temperature  
Mean Temperature 67 °F 65 °F  
Max Temperature 73 °F 74 °F 84 °F (2007)
Min Temperature 61 °F 55 °F 39 °F (1997)
Degree Days  
Heating Degree Days 0 3  
Month to date heating degree days 70 117  
Since 1 July heating degree days 5514 5312  
Cooling Degree Days 2 3  
Month to date cooling degree days 69 37  
Year to date cooling degree days 73 52  
Growing Degree Days 18 (Base 50)    
Moisture  
Dew Point 62 °F    
Average Humidity 79    
Maximum Humidity 93    
Minimum Humidity 64    
Precipitation  
Precipitation 0.44 in 0.15 in 0.44 in (2013)
Month to date precipitation 2.58 4.10  
Year to date precipitation 17.44 15.64  
Sea Level Pressure  
Sea Level Pressure 29.75 in    
Wind  
Wind Speed 7 mph (SW)    
Max Wind Speed 24 mph    
Max Gust Speed 32 mph    
Visibility 8 miles    
Events Rain , Thunderstorm    
T = Trace of Precipitation, MM = Missing Value Source: NWS Daily Summary

Daily Weather History Graph

Daily Weather History Graph

Search for Another Location

Airport or City:

Trip Planner

Search our weather history database for the weather conditions in past years. The results will help you decide how hot, cold, wet, or windy it might be!

Date:

Astronomy

May. 22, 2013 Rise Set
Actual Time 6:24 AM EDT 8:59 PM EDT
Civil Twilight 5:53 AM EDT 9:31 PM EDT
Nautical Twilight 5:14 AM EDT 10:10 PM EDT
Astronomical Twilight 4:30 AM EDT 10:53 PM EDT
Moon 6:21 PM EDT (5/22) 4:27 AM EDT (5/22)
Length of Visible Light 15h 37m
Length of Day
14h 35m
Waxing Gibbous, 91% of the Moon is Illuminated
May 22
Waxing Gibbous
May 25
Full
May 31
Last Quarter
Jun 8
New
Jun 16
First Quarter

Hourly Weather History & Observations

Time (EDT) Temp. Dew Point Humidity Pressure Visibility Wind Dir Wind Speed Gust Speed Precip Events Conditions
12:53 AM 66.0 °F 64.9 °F 96% 29.76 in 10.0 mi South 4.6 mph - 0.09 in   Overcast
1:53 AM 66.9 °F 64.9 °F 93% 29.76 in 10.0 mi Variable 5.8 mph - N/A   Scattered Clouds
2:53 AM 66.0 °F 64.0 °F 93% 29.77 in 10.0 mi South 5.8 mph - N/A   Clear
3:30 AM 66.2 °F 62.6 °F 88% 29.77 in 10.0 mi SSW 8.1 mph - N/A   Overcast
3:53 AM 66.0 °F 63.0 °F 90% 29.75 in 10.0 mi SSW 8.1 mph - N/A   Overcast
4:53 AM 64.9 °F 62.1 °F 90% 29.74 in 10.0 mi South 6.9 mph - N/A   Mostly Cloudy
5:53 AM 66.0 °F 62.1 °F 87% 29.73 in 10.0 mi South 5.8 mph - N/A   Mostly Cloudy
6:14 AM 66.2 °F 62.6 °F 88% 29.76 in 10.0 mi Variable 4.6 mph - N/A   Overcast
6:53 AM 64.9 °F 62.1 °F 90% 29.75 in 7.0 mi SSW 8.1 mph - 0.00 in Rain Light Rain
7:11 AM 64.4 °F 62.6 °F 94% 29.76 in 2.5 mi SSW 3.5 mph - 0.01 in   Overcast
7:14 AM 64.4 °F 62.6 °F 94% 29.76 in 3.0 mi South 4.6 mph - 0.01 in   Overcast
7:19 AM 64.4 °F 62.6 °F 94% 29.76 in 4.0 mi South 4.6 mph - 0.01 in   Overcast
7:50 AM 64.4 °F 62.6 °F 94% 29.76 in 1.8 mi SSW 4.6 mph - 0.02 in Rain Light Rain
7:53 AM 64.0 °F 63.0 °F 96% 29.75 in 1.2 mi SW 4.6 mph - 0.03 in Rain Light Rain
8:06 AM 64.4 °F 62.6 °F 94% 29.76 in 2.0 mi SW 9.2 mph - 0.04 in Rain Light Rain
8:09 AM 64.4 °F 62.6 °F 94% 29.76 in 3.0 mi SSW 10.4 mph - 0.04 in Rain Light Rain
8:18 AM 64.4 °F 62.6 °F 94% 29.77 in 10.0 mi SW 8.1 mph 19.6 mph 0.04 in   Overcast
8:53 AM 64.9 °F 63.0 °F 93% 29.74 in 10.0 mi South 4.6 mph - 0.04 in   Overcast
9:53 AM 66.0 °F 63.0 °F 90% 29.73 in 10.0 mi South 9.2 mph - N/A   Overcast
10:39 AM 68.0 °F 62.6 °F 83% 29.76 in 10.0 mi SSW 10.4 mph 18.4 mph N/A   Mostly Cloudy
10:51 AM 69.8 °F 62.6 °F 78% 29.76 in 10.0 mi South 10.4 mph 20.7 mph N/A   Mostly Cloudy
10:53 AM 70.0 °F 62.1 °F 76% 29.75 in 10.0 mi SSW 12.7 mph 20.7 mph N/A   Mostly Cloudy
11:25 AM 69.8 °F 62.6 °F 78% 29.76 in 10.0 mi South 10.4 mph 19.6 mph N/A   Overcast
11:36 AM 71.6 °F 62.6 °F 73% 29.76 in 10.0 mi SSW 12.7 mph 18.4 mph N/A   Overcast
11:53 AM 71.1 °F 61.0 °F 70% 29.74 in 10.0 mi SSW 13.8 mph 20.7 mph N/A   Overcast
12:53 PM 69.1 °F 60.1 °F 73% 29.75 in 10.0 mi SSW 15.0 mph 23.0 mph N/A   Overcast
1:53 PM 68.0 °F 60.1 °F 76% 29.75 in 10.0 mi South 6.9 mph 17.3 mph 0.00 in   Overcast
2:53 PM 72.0 °F 61.0 °F 68% 29.75 in 10.0 mi SSW 12.7 mph 23.0 mph N/A   Mostly Cloudy
3:53 PM 73.0 °F 61.0 °F 66% 29.73 in 10.0 mi SSW 11.5 mph - N/A   Mostly Cloudy
4:53 PM 73.0 °F 61.0 °F 66% 29.71 in 10.0 mi SSW 11.5 mph 17.3 mph N/A   Mostly Cloudy
5:09 PM 66.2 °F 62.6 °F 88% 29.75 in 1.5 mi WSW 12.7 mph 29.9 mph 0.12 in Rain Light Rain
5:17 PM 64.4 °F 62.6 °F 94% 29.74 in 0.8 mi WNW 8.1 mph 17.3 mph 0.24 in Rain Rain
5:21 PM 64.4 °F 64.4 °F 100% 29.74 in 2.5 mi WNW 5.8 mph 17.3 mph 0.24 in Rain Light Rain
5:28 PM 66.2 °F 64.4 °F 94% 29.73 in 10.0 mi West 4.6 mph - 0.24 in   Overcast
5:53 PM 66.9 °F 63.0 °F 87% 29.73 in 10.0 mi West 3.5 mph - 0.24 in   Overcast
6:53 PM 68.0 °F 62.1 °F 81% 29.73 in 10.0 mi SW 4.6 mph - N/A   Partly Cloudy
7:53 PM 68.0 °F 61.0 °F 78% 29.73 in 10.0 mi SW 4.6 mph - 0.01 in   Mostly Cloudy
8:53 PM 66.0 °F 63.0 °F 90% 29.74 in 7.0 mi Calm Calm - 0.02 in Rain Light Rain
9:23 PM 66.2 °F 60.8 °F 83% 29.76 in 10.0 mi West 3.5 mph - 0.00 in Thunderstorm Partly Cloudy
9:37 PM 66.2 °F 60.8 °F 83% 29.76 in 10.0 mi West 4.6 mph - 0.00 in   Partly Cloudy
9:53 PM 66.0 °F 59.0 °F 78% 29.75 in 10.0 mi WSW 3.5 mph - 0.00 in   Scattered Clouds
10:53 PM 64.9 °F 57.0 °F 75% 29.77 in 10.0 mi SW 3.5 mph - N/A   Scattered Clouds
11:53 PM 64.0 °F 57.9 °F 80% 29.79 in 8.0 mi West 10.4 mph 16.1 mph 0.01 in Rain Light Rain